[[[{"header":{"parameterUnit":"kt","parameterCategory":2,"dx":1,"dy":1,"la1":30.253999710083008,"la2":30.299108505249023,"lo1":-89.0895004272461,"lo2":-89.04439544677734,"nx":28,"ny":28,"refTime":"2022-10-23T21:00:00:Z","depth":"0","parameterNumber":2,"parameterNumberName":"U-component_of_CURRENTS"},"data":[-0.2952,-0.2911,-0.2925,-0.283,-0.2853,-0.2748,-0.2744,-0.2738,-0.2761,-0.2684,-0.2657,-0.2685,-0.2744,-0.3,-0.2896,-0.277,-0.2728,-0.262,-0.268,-0.2847,-0.2878,-0.2908,-0.2851,-0.2616,-0.2616,-0.2387,-0.2385,-0.2384,-0.3039,-0.3055,-0.3095,-0.313,-0.3124,-0.3223,-0.3321,-0.3275,-0.3275,-0.3383,-0.3386,-0.3308,-0.3156,-0.3131,-0.2999,-0.2888,-0.282,-0.2827,-0.2822,-0.2768,-0.2947,-0.288,-0.2647,-0.2647,-0.2647,-0.2647,-0.2647,-0.2647,-0.3204,-0.3203,-0.3261,-0.3304,-0.3383,-0.3437,-0.3418,-0.3564,-0.3624,-0.3672,-0.3843,-0.3765,-0.3705,-0.3462,-0.3396,-0.3214,-0.3261,-0.3105,-0.3157,-0.3178,-0.3039,-0.3221,-0.308,-0.3082,-0.3084,-0.3086,-0.3087,0,-0.3316,-0.3347,-0.3405,-0.3467,-0.3527,-0.36,-0.3692,-0.3749,-0.3917,-0.3982,-0.407,-0.4069,-0.4012,-0.3825,-0.3676,-0.3579,-0.3528,-0.3526,-0.3557,-0.3293,-0.3271,-0.3177,-0.3439,-0.3346,-0.335,-0.3353,-0.3355,-0.3356,-0.3413,-0.3437,-0.3558,-0.3594,-0.3643,-0.3706,-0.3766,-0.3895,-0.3961,-0.4112,-0.4145,-0.4169,-0.4154,-0.406,-0.3931,-0.3815,-0.3798,-0.3618,-0.3559,-0.3558,-0.3582,-0.3592,-0.3518,-0.3396,-0.3391,-0.3387,-0.3383,0,-0.3446,-0.3543,-0.361,-0.3735,-0.3769,-0.3794,-0.391,-0.3958,-0.4047,-0.4115,-0.4131,-0.4216,-0.4193,-0.4158,-0.4104,-0.4032,-0.3891,-0.3909,-0.3762,-0.3722,-0.3589,-0.3622,-0.3558,-0.3463,-0.3791,-0.3788,-0.3786,0,-0.3534,-0.3579,-0.3703,-0.3737,-0.3799,-0.3898,-0.3951,-0.4013,-0.4091,-0.4143,-0.4182,-0.421,-0.4181,-0.4163,-0.4104,-0.4007,-0.4063,-0.3912,-0.3893,-0.3762,-0.3743,-0.3704,-0.3727,-0.4003,-0.4003,-0.4002,-0.4002,0,-0.3539,-0.3671,-0.3737,-0.3778,-0.3914,-0.3943,-0.3996,-0.4066,-0.4108,-0.4156,-0.4184,-0.4185,-0.4174,-0.4137,-0.4073,-0.4065,-0.404,-0.4024,-0.3907,-0.3901,-0.3733,-0.371,-0.3718,-0.4002,-0.4002,-0.4002,-0.4002,0,-0.3606,-0.3674,-0.3763,-0.3879,-0.3905,-0.3948,-0.4022,-0.4075,-0.4125,-0.4141,-0.4148,-0.4133,-0.4129,-0.408,-0.4054,-0.405,-0.4009,-0.3984,-0.3983,-0.3852,-0.3819,-0.3685,-0.3686,-0.3685,-0.3974,-0.3974,-0.3973,0,-0.3594,-0.3692,-0.3754,-0.3835,-0.3887,-0.3939,-0.3993,-0.4038,-0.4059,-0.4084,-0.4069,-0.4072,-0.4031,-0.4018,-0.4011,-0.3974,-0.3975,-0.3966,-0.3917,-0.3916,-0.3821,-0.3858,-0.3699,-0.3693,-0.397,-0.397,-0.3971,0,-0.3573,-0.3699,-0.3701,-0.3746,-0.3831,-0.3863,-0.3922,-0.3974,-0.3997,-0.4008,-0.403,-0.4021,-0.3991,-0.3979,-0.3951,-0.3946,-0.3969,-0.3905,-0.3902,-0.3912,-0.3966,-0.3866,-0.3859,-0.3948,-0.3949,-0.3949,-0.3968,0,-0.3623,-0.3666,-0.369,-0.3758,-0.3797,-0.384,-0.3883,-0.3906,-0.3905,-0.3915,-0.3929,-0.3905,-0.3892,-0.3895,-0.3867,-0.3886,-0.3871,-0.3845,-0.3806,-0.3852,-0.3855,-0.3858,-0.3803,-0.3802,-0.38,-0.3799,0,0,-0.3577,-0.3628,-0.3652,-0.3703,-0.3735,-0.375,-0.3797,-0.3814,-0.3834,-0.384,-0.382,-0.3811,-0.3787,-0.3805,-0.3818,-0.381,-0.38,-0.379,-0.3832,-0.3836,-0.3839,-0.3844,-0.3848,-0.3797,-0.3796,-0.3796,-0.3795,0,-0.359,-0.3607,-0.3638,-0.3675,-0.3721,-0.3739,-0.3752,-0.378,-0.3782,-0.3806,-0.3772,-0.3768,-0.3758,-0.375,-0.3742,-0.3791,-0.375,-0.3787,-0.3825,-0.382,-0.3826,-0.3831,-0.3838,-0.3843,-0.3792,-0.3792,-0.3792,0,-0.3577,-0.3606,-0.3615,-0.3667,-0.3683,-0.3727,-0.3703,-0.3733,-0.3759,-0.3707,-0.3721,-0.3701,-0.3676,-0.3692,-0.3693,-0.3673,-0.3704,-0.3692,-0.3699,-0.3685,-0.3677,-0.3684,-0.3691,-0.3606,-0.3605,-0.3605,0,0,-0.3585,-0.3608,-0.365,-0.367,-0.3689,-0.37,-0.3712,-0.3716,-0.3718,-0.3713,-0.3694,-0.3672,-0.3666,-0.366,-0.365,-0.3662,-0.3639,-0.3672,-0.3681,-0.3688,-0.368,-0.3673,-0.368,-0.3604,-0.3604,-0.3604,0,0,-0.3582,-0.3624,-0.3624,-0.3654,-0.3685,-0.3703,-0.3713,-0.3709,-0.3703,-0.369,-0.3655,-0.3649,-0.3656,-0.3631,-0.3619,-0.3639,-0.3599,-0.3601,-0.3663,-0.3673,-0.3682,-0.3675,-0.3575,0,0,0,0,0,-0.3603,-0.3624,-0.3624,-0.3632,-0.3665,-0.3707,-0.371,-0.3704,-0.3679,-0.3694,-0.367,-0.3638,-0.3622,-0.361,-0.3605,-0.3628,-0.3587,-0.359,-0.3593,-0.3675,-0.3686,-0.3696,0,0,0,0,0,0,-0.3607,-0.3617,-0.3624,-0.3645,-0.3652,-0.3705,-0.3671,-0.3669,-0.3678,-0.3674,-0.3644,-0.3637,-0.3613,-0.361,-0.3606,-0.3629,-0.3576,-0.3589,-0.3591,-0.3593,-0.3679,-0.3688,-0.3696,0,0,0,0,0,-0.361,-0.3617,-0.3672,-0.3644,-0.365,-0.3654,-0.3669,-0.3668,-0.3667,-0.3645,-0.3638,-0.3663,-0.3615,-0.3609,-0.3608,-0.3632,-0.3578,-0.3577,-0.359,-0.3592,-0.3594,-0.3683,0,0,0,0,0,0,-0.3612,-0.3606,-0.3673,-0.3674,-0.3634,-0.365,-0.3653,-0.3667,-0.3636,-0.3632,-0.3663,-0.366,-0.3616,-0.3611,-0.3607,-0.3635,-0.3581,-0.3579,-0.3578,-0.3592,-0.3593,-0.3595,0,0,0,0,0,0,-0.3602,-0.3607,-0.3673,-0.3661,-0.3661,-0.3647,-0.365,-0.3639,-0.3634,-0.3652,-0.3651,-0.3662,-0.3612,-0.3613,-0.3609,-0.3594,-0.3582,-0.3581,-0.358,-0.3579,-0.3593,-0.3594,0,0,0,0,0,0,-0.3604,-0.3608,-0.366,-0.366,-0.366,-0.3674,-0.3635,-0.3658,-0.3656,-0.3652,-0.3654,-0.3652,-0.3613,-0.361,-0.3611,-0.3598,-0.3595,-0.3582,-0.3581,-0.3581,-0.358,0,0,0,0,0,0,0,-0.3605,-0.3579,-0.3669,-0.3659,-0.3659,-0.3691,-0.3691,-0.3691,-0.3656,-0.3655,-0.3654,-0.3653,-0.359,-0.3588,-0.3587,-0.3601,0,0,-0.3582,-0.3582,0,0,0,0,0,0,0,0,-0.3577,-0.3578,-0.3669,-0.367,-0.3671,-0.3691,-0.3691,-0.3691,-0.3656,-0.3655,-0.3654,-0.3653,-0.3589,-0.3588,-0.3587,0,0,0,0,0,0,0,0,0,0,0,0,0,0,0,-0.3669,-0.367,0,-0.3691,-0.3691,-0.3691,-0.3656,-0.3655,-0.3654,-0.3654,-0.3589,-0.3588,-0.3587,0,0,0,0,0,0,0,0,0,0,0,0,0,0,0,0,0,0,0,0,0,0,0,0,0,0,0,0,0,0,0,0,0,0,0,0,0,0,0,0,0,0,0,0,0,0,0,0,0,0,0,0,0,0,0,0,0,0,0,0,0,0,0,0,0,0,0,0,0]}],[{"header":{"parameterUnit":"kt","parameterCategory":2,"dx":1,"dy":1,"la1":30.253999710083008,"la2":30.299108505249023,"lo1":-89.0895004272461,"lo2":-89.04439544677734,"nx":28,"ny":28,"refTime":"2022-10-23T21:00:00:Z","depth":"0","parameterNumber":3,"parameterNumberName":"V-component_of_CURRENTS"},"data":[-0.1413,-0.1561,-0.163,-0.1816,-0.1891,-0.1947,-0.1924,-0.1678,-0.1345,-0.0594,0.0056,0.0578,0.1522,0.2777,0.3506,0.3536,0.3764,0.3698,0.3821,0.3438,0.3377,0.3318,0.335,0.3909,0.391,0.4402,0.4407,0.4411,-0.1361,-0.1451,-0.1577,-0.1695,-0.1795,-0.1788,-0.1778,-0.1689,-0.1485,-0.1056,-0.0666,0.0323,0.1111,0.1796,0.2596,0.2878,0.2907,0.2981,0.3032,0.31,0.2519,0.2528,0.2922,0.2921,0.2921,0.2921,0.2921,0.292,-0.127,-0.135,-0.1436,-0.1543,-0.1618,-0.167,-0.168,-0.1583,-0.1463,-0.1137,-0.0876,-0.0331,0.0462,0.1291,0.1569,0.2142,0.2017,0.2282,0.2335,0.2326,0.2463,0.1753,0.2045,0.2044,0.2043,0.2042,0.2041,0,-0.1199,-0.1214,-0.1273,-0.1397,-0.1449,-0.1494,-0.1491,-0.1481,-0.1311,-0.1157,-0.0863,-0.0586,0.0038,0.0628,0.1172,0.1406,0.1695,0.1599,0.1845,0.2049,0.2068,0.2225,0.1451,0.1685,0.1682,0.1679,0.1678,0.1676,-0.1092,-0.1138,-0.1191,-0.1246,-0.1249,-0.1282,-0.1301,-0.1192,-0.1156,-0.0905,-0.0858,-0.0514,-0.0205,0.039,0.0801,0.1236,0.1375,0.1511,0.1483,0.1706,0.1816,0.1823,0.192,0.164,0.1645,0.1649,0.1652,0,-0.1029,-0.1029,-0.1091,-0.1086,-0.1092,-0.1126,-0.1087,-0.1079,-0.0944,-0.0853,-0.0805,-0.0504,-0.0167,0.0156,0.0531,0.0725,0.1188,0.114,0.1173,0.1238,0.1643,0.1698,0.204,0.2186,0.1403,0.1406,0.1409,0,-0.0918,-0.0958,-0.0957,-0.0985,-0.1034,-0.0956,-0.0959,-0.0883,-0.0765,-0.0703,-0.0501,-0.0383,-0.0076,0.0163,0.0383,0.0725,0.0704,0.0932,0.0997,0.1043,0.1054,0.1328,0.1393,0.0891,0.0889,0.0888,0.0887,0,-0.0817,-0.0839,-0.0895,-0.089,-0.0849,-0.0839,-0.0806,-0.0681,-0.0639,-0.048,-0.0423,-0.0207,-0.0089,0.0119,0.0395,0.0371,0.0701,0.0706,0.0921,0.0929,0.1066,0.1082,0.1427,0.0884,0.0884,0.0883,0.0883,0,-0.0705,-0.0732,-0.0789,-0.0772,-0.0767,-0.0756,-0.0683,-0.0637,-0.0482,-0.0407,-0.0273,-0.0147,0.0022,0.0074,0.0357,0.029,0.0434,0.0559,0.057,0.0684,0.0735,0.0968,0.1064,0.1312,0.071,0.0708,0.0706,0,-0.0623,-0.0681,-0.0632,-0.0662,-0.0682,-0.0582,-0.0545,-0.0462,-0.0371,-0.0287,-0.0129,-0.0037,0.0047,0.01,0.0203,0.0368,0.0456,0.0361,0.0611,0.0619,0.0691,0.0749,0.0831,0.1022,0.0679,0.0682,0.0684,0,-0.0553,-0.0538,-0.0542,-0.0552,-0.0487,-0.0475,-0.0426,-0.0356,-0.0322,-0.0213,-0.0152,-0.0002,0.0071,0.0138,0.0238,0.0324,0.0419,0.0371,0.0377,0.0445,0.0616,0.0702,0.0729,0.0459,0.0461,0.0463,0.0663,0,-0.0469,-0.0475,-0.0485,-0.0465,-0.0435,-0.0432,-0.0349,-0.0307,-0.0246,-0.0176,-0.007,0.0056,0.0163,0.0207,0.0267,0.0352,0.038,0.041,0.0441,0.0441,0.0529,0.0545,0.0374,0.0375,0.0376,0.0377,0,0,-0.0405,-0.0419,-0.0364,-0.0371,-0.0354,-0.0269,-0.0279,-0.0219,-0.0129,-0.0089,-0.0064,0.0117,0.0202,0.031,0.0314,0.0356,0.0412,0.0356,0.0431,0.0436,0.0441,0.0525,0.0539,0.0378,0.0379,0.0379,0.038,0,-0.0373,-0.0345,-0.0366,-0.0335,-0.029,-0.0242,-0.0241,-0.0168,-0.0125,-0.0065,0.0021,0.0105,0.021,0.0296,0.0352,0.0364,0.044,0.0379,0.0343,0.0436,0.044,0.0444,0.0526,0.0539,0.0382,0.0382,0.0382,0,-0.032,-0.0295,-0.0296,-0.0254,-0.0215,-0.02,-0.0139,-0.0113,-0.0089,0.0017,0.0072,0.0151,0.0253,0.032,0.0354,0.0369,0.047,0.0427,0.0423,0.0415,0.0513,0.0517,0.0521,0.0479,0.0479,0.0479,0,0,-0.0297,-0.03,-0.0239,-0.0242,-0.0225,-0.0155,-0.0131,-0.0092,-0.0025,0.0005,0.0082,0.0165,0.0243,0.0288,0.0358,0.0417,0.0476,0.0436,0.0431,0.0427,0.0417,0.0513,0.0516,0.0479,0.0479,0.0479,0,0,-0.0279,-0.0232,-0.0209,-0.021,-0.0166,-0.0089,-0.0082,-0.004,0.0027,0.0035,0.0134,0.0159,0.0226,0.028,0.0269,0.0368,0.039,0.0395,0.0331,0.0327,0.0323,0.0292,0.033,0,0,0,0,0,-0.0225,-0.0242,-0.0222,-0.0214,-0.0146,-0.0103,-0.009,-0.0031,-0.0007,-0.0002,0.008,0.0125,0.0294,0.0286,0.0309,0.032,0.0478,0.0478,0.0478,0.0411,0.0405,0.04,0,0,0,0,0,0,-0.0222,-0.0214,-0.0221,-0.0151,-0.0135,-0.0102,-0.0054,-0.0037,-0.0006,0.0001,0.0109,0.0129,0.0196,0.028,0.0299,0.0309,0.0324,0.0478,0.0478,0.0478,0.0409,0.0404,0.04,0,0,0,0,0,-0.0219,-0.0212,-0.0128,-0.0149,-0.0135,-0.0059,-0.0053,-0.0039,-0.001,0.0091,0.0111,0.003,0.0194,0.0216,0.0292,0.0298,0.0311,0.0318,0.0478,0.0478,0.0479,0.0407,0,0,0,0,0,0,-0.0216,-0.0186,-0.0122,-0.0114,-0.0148,-0.0058,-0.0046,-0.0041,0.008,0.0098,0.0018,0.0022,0.0192,0.021,0.0226,0.029,0.0301,0.0308,0.0312,0.0478,0.0478,0.0479,0,0,0,0,0,0,-0.0189,-0.0181,-0.0118,-0.012,-0.0112,-0.0059,-0.0048,0.0021,0.0082,0.0001,0.0008,0.0018,0.0178,0.0206,0.0219,0.0324,0.0293,0.03,0.0304,0.0307,0.0478,0.0479,0,0,0,0,0,0,-0.0184,-0.0176,-0.0122,-0.0116,-0.0108,-0.0011,0.0007,0.008,0.0054,-0.0004,0.0055,0.0056,0.0173,0.0187,0.0213,0.0312,0.0321,0.0293,0.0298,0.0301,0.0303,0,0,0,0,0,0,0,-0.0179,-0.0255,-0.0173,-0.0111,-0.0105,-0.0041,-0.0039,-0.0036,0.0054,0.0055,0.0055,0.0056,0.0255,0.0262,0.027,0.0303,0,0,0.0293,0.0296,0,0,0,0,0,0,0,0,-0.0256,-0.0255,-0.0173,-0.0172,-0.017,-0.0041,-0.0039,-0.0037,0.0054,0.0055,0.0055,0.0056,0.0257,0.0263,0.0269,0,0,0,0,0,0,0,0,0,0,0,0,0,0,0,-0.0173,-0.0172,0,-0.004,-0.0039,-0.0037,0.0054,0.0055,0.0055,0.0055,0.0259,0.0263,0.0268,0,0,0,0,0,0,0,0,0,0,0,0,0,0,0,0,0,0,0,0,0,0,0,0,0,0,0,0,0,0,0,0,0,0,0,0,0,0,0,0,0,0,0,0,0,0,0,0,0,0,0,0,0,0,0,0,0,0,0,0,0,0,0,0,0,0,0,0,0]}]],[[{"header":{"parameterUnit":"kt","parameterCategory":2,"dx":1,"dy":1,"la1":30.253999710083008,"la2":30.299108505249023,"lo1":-89.0895004272461,"lo2":-89.04439544677734,"nx":28,"ny":28,"refTime":"2022-10-23T21:00:00:Z","depth":"2","parameterNumber":2,"parameterNumberName":"U-component_of_CURRENTS"},"data":[-0.2778,-0.274,-0.2755,-0.2665,-0.2693,-0.2574,-0.256,-0.248,-0.2432,-0.2226,-0.2094,-0.2265,-0.2351,-0.1935,-0.1884,-0.1688,-0.1864,-0.1604,-0.2347,-0.2326,-0.2373,-0.2531,-0.2412,0,0,0,0,0,-0.2862,-0.2883,-0.2926,-0.2963,-0.2955,-0.3055,-0.3142,-0.3061,-0.3032,-0.307,-0.3039,-0.2664,-0.2517,-0.2486,-0.2201,-0.2188,-0.2154,-0.2099,-0.2039,-0.2095,-0.2145,-0.2029,-0.1596,-0.1594,-0.1592,-0.159,0,0,-0.3021,-0.3022,-0.3081,-0.3128,-0.3208,-0.3257,-0.3235,-0.3366,-0.3416,-0.3423,-0.3604,-0.3445,-0.3424,-0.2999,-0.2874,-0.2741,-0.2952,-0.2799,-0.2817,-0.2843,-0.2762,-0.2721,-0.2524,-0.2528,-0.2531,-0.2534,-0.2537,0,-0.3124,-0.3157,-0.3216,-0.328,-0.3343,-0.3415,-0.3509,-0.3564,-0.373,-0.3788,-0.3867,-0.3859,-0.379,-0.3519,-0.3367,-0.3257,-0.3277,-0.3149,-0.3642,-0.2978,-0.2939,-0.2923,-0.2948,-0.2797,-0.2803,-0.2807,-0.281,-0.2812,-0.3215,-0.324,-0.336,-0.3398,-0.3449,-0.3517,-0.3579,-0.3709,-0.3775,-0.3924,-0.3955,-0.3981,-0.396,-0.3865,-0.3721,-0.36,-0.3693,-0.3281,-0.3204,-0.3627,-0.361,-0.3613,-0.3615,-0.2873,-0.2865,-0.2859,-0.2854,0,-0.3245,-0.3339,-0.3407,-0.3531,-0.3567,-0.3596,-0.3716,-0.3767,-0.3859,-0.3929,-0.3947,-0.4031,-0.4008,-0.3974,-0.3918,-0.3844,-0.377,-0.3718,-0.3429,-0.3373,-0.3633,-0.3631,-0.3604,-0.36,-0.3598,-0.3595,-0.3593,0,-0.3327,-0.3373,-0.3494,-0.3529,-0.3594,-0.3692,-0.3752,-0.3815,-0.3897,-0.395,-0.3993,-0.4021,-0.3998,-0.3978,-0.3917,-0.3819,-0.3874,-0.3721,-0.37,-0.3447,-0.3418,-0.3754,-0.3747,-0.381,-0.3809,-0.3809,-0.3809,0,-0.3331,-0.3459,-0.3525,-0.3565,-0.3697,-0.3731,-0.3785,-0.3859,-0.3904,-0.3959,-0.3989,-0.3996,-0.3988,-0.3951,-0.3886,-0.3878,-0.385,-0.3834,-0.3715,-0.3709,-0.342,-0.3387,-0.3809,-0.3809,-0.3809,-0.3809,-0.3809,0,-0.3393,-0.3459,-0.3546,-0.3659,-0.3686,-0.3731,-0.3809,-0.3863,-0.3918,-0.3939,-0.3951,-0.3939,-0.394,-0.3891,-0.3866,-0.3862,-0.3819,-0.3792,-0.3792,-0.3662,-0.3626,-0.336,-0.3334,-0.3777,-0.3776,-0.3776,-0.3776,0,-0.338,-0.3475,-0.3533,-0.3614,-0.3666,-0.3719,-0.3774,-0.3821,-0.3846,-0.3877,-0.3865,-0.3874,-0.3834,-0.3825,-0.382,-0.3783,-0.3782,-0.3775,-0.3721,-0.372,-0.3628,-0.3668,-0.3368,-0.3346,-0.3773,-0.3773,-0.3773,0,-0.3359,-0.3479,-0.3482,-0.3526,-0.3609,-0.3642,-0.3702,-0.3756,-0.3783,-0.3798,-0.3825,-0.3819,-0.3794,-0.3783,-0.3756,-0.3752,-0.3776,-0.3711,-0.3708,-0.3716,-0.3773,-0.3676,-0.3669,-0.3757,-0.3757,-0.3758,-0.3771,0,-0.3403,-0.3446,-0.347,-0.3536,-0.3575,-0.3618,-0.3661,-0.3687,-0.3691,-0.3703,-0.3723,-0.37,-0.3691,-0.3695,-0.3667,-0.3689,-0.3672,-0.3646,-0.3606,-0.3655,-0.3654,-0.3657,-0.3601,-0.36,-0.3598,-0.3597,0,0,-0.336,-0.3408,-0.3432,-0.348,-0.3512,-0.3529,-0.3575,-0.3594,-0.3617,-0.3625,-0.3608,-0.3604,-0.3581,-0.3601,-0.3615,-0.3607,-0.3596,-0.3589,-0.3632,-0.3637,-0.3641,-0.3643,-0.3647,-0.3594,-0.3594,-0.3593,-0.3593,0,-0.3369,-0.3387,-0.3417,-0.3453,-0.3499,-0.3517,-0.3531,-0.356,-0.3565,-0.3591,-0.3559,-0.3559,-0.3551,-0.3543,-0.3535,-0.3587,-0.3545,-0.3584,-0.3625,-0.3621,-0.3627,-0.3632,-0.3636,-0.3641,-0.3589,-0.359,-0.359,0,-0.3355,-0.3383,-0.3392,-0.3442,-0.3458,-0.3501,-0.3479,-0.351,-0.3538,-0.3488,-0.3507,-0.3488,-0.3463,-0.3481,-0.3484,-0.3463,-0.3498,-0.3485,-0.3492,-0.3479,-0.3471,-0.3479,-0.3486,-0.3395,-0.3395,-0.3394,0,0,-0.3361,-0.3384,-0.3423,-0.3444,-0.3463,-0.3475,-0.3487,-0.3493,-0.3496,-0.3494,-0.3477,-0.3458,-0.3453,-0.3449,-0.3438,-0.3452,-0.3428,-0.3464,-0.3474,-0.3481,-0.3474,-0.3467,-0.3475,-0.3393,-0.3393,-0.3393,0,0,-0.3357,-0.3396,-0.3398,-0.3427,-0.3458,-0.3474,-0.3486,-0.3484,-0.3481,-0.3472,-0.3438,-0.3432,-0.3443,-0.3418,-0.3405,-0.3428,-0.3386,-0.3388,-0.3453,-0.3464,-0.3473,-0.3467,-0.336,0,0,0,0,0,-0.3376,-0.3396,-0.3397,-0.3405,-0.3437,-0.3477,-0.348,-0.3477,-0.3456,-0.3472,-0.3451,-0.342,-0.3408,-0.3396,-0.3391,-0.3416,-0.3376,-0.3379,-0.3382,-0.3468,-0.348,-0.349,0,0,0,0,0,0,-0.3379,-0.3388,-0.3397,-0.3416,-0.3423,-0.3475,-0.3443,-0.3442,-0.3454,-0.3452,-0.3425,-0.3419,-0.3395,-0.3396,-0.3392,-0.3417,-0.3362,-0.3377,-0.338,-0.3382,-0.3472,-0.3481,-0.349,0,0,0,0,0,-0.3381,-0.3389,-0.3441,-0.3414,-0.3421,-0.3427,-0.3442,-0.3441,-0.3444,-0.3422,-0.3417,-0.3444,-0.3396,-0.3391,-0.3393,-0.342,-0.3364,-0.3363,-0.3379,-0.3381,-0.3383,-0.3477,0,0,0,0,0,0,-0.3383,-0.3378,-0.3442,-0.3444,-0.3407,-0.3424,-0.3427,-0.344,-0.3413,-0.341,-0.3438,-0.3436,-0.3397,-0.3392,-0.3389,-0.3424,-0.3366,-0.3365,-0.3364,-0.338,-0.3382,-0.3383,0,0,0,0,0,0,-0.3374,-0.3379,-0.3443,-0.3433,-0.3434,-0.3421,-0.3424,-0.3413,-0.3411,-0.3428,-0.3427,-0.3438,-0.3394,-0.3394,-0.3391,-0.3375,-0.3367,-0.3366,-0.3365,-0.3365,-0.3382,-0.3383,0,0,0,0,0,0,-0.3376,-0.338,-0.3432,-0.3433,-0.3433,-0.3447,-0.3409,-0.3432,-0.3433,-0.3428,-0.3431,-0.343,-0.3395,-0.3392,-0.3392,-0.3379,-0.3376,-0.3367,-0.3367,-0.3366,-0.3366,0,0,0,0,0,0,0,-0.3378,-0.3352,-0.3438,-0.3432,-0.3432,-0.3461,-0.3461,-0.3461,-0.3433,-0.3432,-0.3431,-0.343,-0.3375,-0.3373,-0.3372,-0.3381,0,0,-0.3368,-0.3367,0,0,0,0,0,0,0,0,-0.335,-0.3351,-0.3439,-0.3439,-0.344,-0.3461,-0.3461,-0.3461,-0.3433,-0.3432,-0.3431,-0.3431,-0.3374,-0.3373,-0.3372,0,0,0,0,0,0,0,0,0,0,0,0,0,0,0,-0.3439,-0.3439,0,-0.3461,-0.3461,-0.3461,-0.3433,-0.3432,-0.3431,-0.3431,-0.3374,-0.3373,-0.3372,0,0,0,0,0,0,0,0,0,0,0,0,0,0,0,0,0,0,0,0,0,0,0,0,0,0,0,0,0,0,0,0,0,0,0,0,0,0,0,0,0,0,0,0,0,0,0,0,0,0,0,0,0,0,0,0,0,0,0,0,0,0,0,0,0,0,0,0,0]}],[{"header":{"parameterUnit":"kt","parameterCategory":2,"dx":1,"dy":1,"la1":30.253999710083008,"la2":30.299108505249023,"lo1":-89.0895004272461,"lo2":-89.04439544677734,"nx":28,"ny":28,"refTime":"2022-10-23T21:00:00:Z","depth":"2","parameterNumber":3,"parameterNumberName":"V-component_of_CURRENTS"},"data":[-0.1534,-0.1676,-0.1742,-0.1924,-0.1997,-0.2062,-0.2046,-0.1882,-0.165,-0.1338,-0.0998,-0.0538,0.0021,0.0325,0.0671,0.0918,0.0904,0.0914,0.0995,0.0751,0.0743,0.0988,0.0875,0,0,0,0,0,-0.1481,-0.1567,-0.1686,-0.1799,-0.1897,-0.1889,-0.1883,-0.1825,-0.1663,-0.1351,-0.1029,-0.0548,-0.0003,0.0446,0.0931,0.123,0.116,0.1235,0.1073,0.1067,0.1063,0.0996,0.1115,0.1115,0.1116,0.1117,0,0,-0.1389,-0.1466,-0.1547,-0.1648,-0.1719,-0.1771,-0.1784,-0.1703,-0.1599,-0.1333,-0.1082,-0.0655,-0.0233,0.052,0.0861,0.1153,0.1161,0.1188,0.1179,0.1171,0.1117,0.1067,0.1263,0.1264,0.1265,0.1266,0.1267,0,-0.132,-0.1333,-0.1388,-0.1505,-0.1554,-0.1596,-0.1592,-0.1583,-0.1418,-0.1279,-0.1012,-0.0764,-0.0198,0.0255,0.0769,0.0972,0.1015,0.111,0.1131,0.0872,0.0812,0.0843,0.0828,0.0971,0.0971,0.0971,0.097,0.097,-0.1216,-0.1259,-0.1307,-0.1359,-0.1361,-0.139,-0.1407,-0.1298,-0.1262,-0.1021,-0.0977,-0.0649,-0.037,0.0197,0.0568,0.0976,0.0963,0.1086,0.1037,0.0994,0.1032,0.1011,0.0992,0.0967,0.0967,0.0967,0.0968,0,-0.1155,-0.1154,-0.1212,-0.1204,-0.1208,-0.1239,-0.1199,-0.1189,-0.1054,-0.0964,-0.0916,-0.0625,-0.0306,0.0008,0.0369,0.0554,0.0841,0.0947,0.0786,0.0826,0.098,0.0965,0.1178,0.1182,0.1186,0.1189,0.1191,0,-0.1049,-0.1086,-0.1083,-0.111,-0.1153,-0.1077,-0.1075,-0.0999,-0.0881,-0.0819,-0.0618,-0.0505,-0.0203,0.0025,0.0237,0.0558,0.0545,0.0752,0.0814,0.0695,0.069,0.0669,0.066,0.073,0.0728,0.0727,0.0726,0,-0.0953,-0.0971,-0.1024,-0.1019,-0.0977,-0.0965,-0.0932,-0.0807,-0.0765,-0.0604,-0.0546,-0.0331,-0.0216,-0.0014,0.0247,0.0226,0.0541,0.055,0.0743,0.0749,0.0721,0.0721,0.0724,0.0724,0.0723,0.0723,0.0722,0,-0.0846,-0.0871,-0.0924,-0.0905,-0.09,-0.0889,-0.0814,-0.0768,-0.0612,-0.0537,-0.0402,-0.0278,-0.0112,-0.0063,0.0211,0.0145,0.0283,0.0402,0.0413,0.0511,0.0558,0.0607,0.0658,0.0546,0.0544,0.0542,0.054,0,-0.0769,-0.0822,-0.0775,-0.0802,-0.082,-0.0723,-0.0685,-0.0603,-0.0513,-0.0427,-0.0271,-0.0178,-0.0099,-0.0045,0.0056,0.0216,0.0301,0.0209,0.0452,0.0459,0.0516,0.0571,0.0461,0.0624,0.0515,0.0517,0.0519,0,-0.0702,-0.0686,-0.069,-0.0698,-0.0635,-0.0623,-0.0574,-0.0504,-0.0468,-0.0361,-0.0296,-0.015,-0.0077,-0.0011,0.0086,0.0172,0.0264,0.0215,0.0222,0.0285,0.0458,0.0527,0.0551,0.0306,0.0308,0.031,0.0499,0,-0.0622,-0.0627,-0.0635,-0.0615,-0.0586,-0.0582,-0.0501,-0.0459,-0.0398,-0.0329,-0.0222,-0.0098,0.0009,0.0052,0.0109,0.0195,0.022,0.0251,0.0281,0.0283,0.0365,0.0381,0.0212,0.0213,0.0214,0.0215,0,0,-0.056,-0.0573,-0.052,-0.0526,-0.0508,-0.0425,-0.0434,-0.0376,-0.0286,-0.0245,-0.0221,-0.0041,0.0042,0.015,0.0154,0.0196,0.0249,0.0195,0.0272,0.0277,0.0283,0.0361,0.0375,0.0217,0.0217,0.0218,0.0218,0,-0.053,-0.0502,-0.0522,-0.0491,-0.0446,-0.04,-0.0398,-0.0326,-0.0283,-0.0223,-0.0138,-0.0054,0.0049,0.0134,0.0189,0.0203,0.0275,0.0217,0.0184,0.0277,0.0281,0.0286,0.0363,0.0375,0.022,0.022,0.022,0,-0.0479,-0.0454,-0.0454,-0.0414,-0.0375,-0.036,-0.03,-0.0273,-0.0249,-0.0145,-0.009,-0.0011,0.0089,0.0156,0.019,0.0204,0.0305,0.0263,0.0259,0.0251,0.035,0.0354,0.0358,0.0312,0.0312,0.0312,0,0,-0.0456,-0.0458,-0.04,-0.0402,-0.0385,-0.0317,-0.0292,-0.0254,-0.0187,-0.0157,-0.0081,0.0002,0.0079,0.0124,0.0192,0.0251,0.0309,0.0271,0.0266,0.0263,0.0253,0.0349,0.0353,0.0312,0.0312,0.0312,0,0,-0.0439,-0.0393,-0.037,-0.0371,-0.0328,-0.0253,-0.0245,-0.0204,-0.0137,-0.0127,-0.003,-0.0005,0.0061,0.0114,0.0103,0.0203,0.0224,0.0228,0.0166,0.0162,0.0158,0.0129,0.0163,0,0,0,0,0,-0.0386,-0.0402,-0.0383,-0.0375,-0.0309,-0.0267,-0.0254,-0.0195,-0.017,-0.0165,-0.0084,-0.0039,0.0128,0.012,0.0142,0.0155,0.031,0.0311,0.0311,0.0246,0.024,0.0236,0,0,0,0,0,0,-0.0383,-0.0375,-0.0382,-0.0314,-0.0298,-0.0266,-0.0218,-0.0201,-0.017,-0.0163,-0.0055,-0.0036,0.003,0.0114,0.0132,0.0143,0.0157,0.0311,0.0311,0.0311,0.0244,0.024,0.0236,0,0,0,0,0,-0.038,-0.0373,-0.0292,-0.0311,-0.0298,-0.0222,-0.0218,-0.0203,-0.0174,-0.0074,-0.0054,-0.0133,0.0027,0.0049,0.0125,0.0133,0.0144,0.0151,0.0311,0.0311,0.0311,0.0242,0,0,0,0,0,0,-0.0377,-0.0348,-0.0286,-0.0278,-0.031,-0.0222,-0.021,-0.0205,-0.0085,-0.0067,-0.0147,-0.0143,0.0026,0.0043,0.006,0.0125,0.0134,0.0141,0.0145,0.0311,0.0311,0.0311,0,0,0,0,0,0,-0.0351,-0.0342,-0.0282,-0.0284,-0.0275,-0.0222,-0.0211,-0.0144,-0.0083,-0.0163,-0.0157,-0.0146,0.0012,0.0039,0.0052,0.0156,0.0126,0.0133,0.0137,0.014,0.0311,0.0311,0,0,0,0,0,0,-0.0345,-0.0338,-0.0285,-0.0279,-0.0271,-0.0176,-0.0158,-0.0086,-0.0112,-0.0168,-0.011,-0.0109,0.0007,0.0021,0.0047,0.0144,0.0153,0.0127,0.0131,0.0134,0.0136,0,0,0,0,0,0,0,-0.0341,-0.0415,-0.0337,-0.0275,-0.0268,-0.0206,-0.0204,-0.0201,-0.0111,-0.0111,-0.011,-0.0109,0.0089,0.0096,0.0103,0.0134,0,0,0.0126,0.0129,0,0,0,0,0,0,0,0,-0.0416,-0.0415,-0.0336,-0.0335,-0.0333,-0.0206,-0.0204,-0.0202,-0.0111,-0.0111,-0.011,-0.011,0.0091,0.0097,0.0102,0,0,0,0,0,0,0,0,0,0,0,0,0,0,0,-0.0336,-0.0335,0,-0.0206,-0.0204,-0.0202,-0.0111,-0.0111,-0.011,-0.011,0.0092,0.0097,0.0102,0,0,0,0,0,0,0,0,0,0,0,0,0,0,0,0,0,0,0,0,0,0,0,0,0,0,0,0,0,0,0,0,0,0,0,0,0,0,0,0,0,0,0,0,0,0,0,0,0,0,0,0,0,0,0,0,0,0,0,0,0,0,0,0,0,0,0,0,0]}]],[[{"header":{"parameterUnit":"kt","parameterCategory":2,"dx":1,"dy":1,"la1":30.253999710083008,"la2":30.299108505249023,"lo1":-89.0895004272461,"lo2":-89.04439544677734,"nx":28,"ny":28,"refTime":"2022-10-23T21:00:00:Z","depth":"4","parameterNumber":2,"parameterNumberName":"U-component_of_CURRENTS"},"data":[-0.1796,-0.1869,-0.1901,-0.1885,-0.1905,-0.2011,-0.2122,-0.2271,-0.2233,-0.2446,-0.2383,-0.2536,-0.2446,-0.2614,-0.2373,-0.238,-0.2382,-0.2507,-0.2499,-0.2619,-0.2643,-0.2664,-0.2601,0,0,0,0,0,-0.1869,-0.1886,-0.1977,-0.2073,-0.2212,-0.227,-0.2482,-0.2597,-0.2803,-0.2699,-0.2781,-0.2721,-0.2598,-0.2628,-0.2449,-0.2679,-0.2639,-0.2464,-0.2557,-0.2634,-0.266,-0.259,0,0,0,0,0,0,-0.1981,-0.2015,-0.2148,-0.2251,-0.2402,-0.2452,-0.2562,-0.2634,-0.2714,-0.2922,-0.2899,-0.2935,-0.3033,-0.2864,-0.2787,-0.2672,-0.2627,-0.254,-0.2569,-0.2595,-0.2521,-0.2458,-0.222,0,0,0,0,0,-0.2069,-0.2165,-0.2267,-0.2408,-0.2532,-0.2646,-0.2794,-0.2826,-0.3023,-0.3197,-0.3156,-0.3104,-0.3061,-0.2987,-0.2892,-0.2805,-0.2974,-0.2865,-0.2878,-0.2859,-0.2835,-0.2816,-0.283,-0.276,-0.2764,-0.2766,-0.2767,0,-0.2177,-0.223,-0.2454,-0.253,-0.2629,-0.2772,-0.2871,-0.3057,-0.3131,-0.3306,-0.3324,-0.3364,-0.3394,-0.3142,-0.3172,-0.3039,-0.299,-0.2934,-0.2914,-0.2878,-0.285,-0.2859,-0.2865,-0.2788,-0.2787,-0.2785,-0.2783,0,-0.2224,-0.2357,-0.2477,-0.2678,-0.2747,-0.2825,-0.3023,-0.3101,-0.3246,-0.3337,-0.3374,-0.3481,-0.3447,-0.3439,-0.3387,-0.3268,-0.3161,-0.3074,-0.3312,-0.3289,-0.2905,-0.2903,-0.2823,-0.2815,-0.2809,-0.2803,-0.2799,0,-0.2329,-0.2413,-0.2603,-0.2655,-0.2777,-0.291,-0.3035,-0.3138,-0.327,-0.3341,-0.3439,-0.3469,-0.35,-0.3483,-0.3424,-0.3265,-0.3382,-0.312,-0.3081,-0.3303,-0.3301,-0.3254,-0.3245,-0.3331,-0.3331,-0.3331,-0.3331,0,-0.2356,-0.2521,-0.2621,-0.2674,-0.2853,-0.2931,-0.3025,-0.3157,-0.3232,-0.3355,-0.3408,-0.3461,-0.3483,-0.3456,-0.3396,-0.3396,-0.3362,-0.3351,-0.3121,-0.3106,-0.3251,-0.3242,-0.3331,-0.3331,-0.3331,-0.3331,-0.3331,0,-0.2428,-0.251,-0.2629,-0.2783,-0.2822,-0.2902,-0.3047,-0.3132,-0.3248,-0.3305,-0.3367,-0.3384,-0.3423,-0.3382,-0.3376,-0.3376,-0.3331,-0.3302,-0.33,-0.3055,-0.2995,-0.3157,-0.3256,-0.3255,-0.3255,-0.3255,-0.3254,0,-0.2421,-0.2532,-0.2604,-0.2722,-0.2786,-0.2876,-0.2964,-0.3056,-0.3129,-0.3211,-0.324,-0.3299,-0.3274,-0.3297,-0.3306,-0.3278,-0.3283,-0.3277,-0.3205,-0.3203,-0.3002,-0.304,-0.3266,-0.325,-0.325,-0.3251,-0.3251,0,-0.2393,-0.2538,-0.2551,-0.2614,-0.2726,-0.2772,-0.2875,-0.2967,-0.3034,-0.3105,-0.3178,-0.3225,-0.3227,-0.3232,-0.3224,-0.3231,-0.3271,-0.319,-0.3188,-0.3176,-0.3272,-0.306,-0.3043,-0.3261,-0.3262,-0.3263,-0.3248,0,-0.2429,-0.2497,-0.2531,-0.2616,-0.2674,-0.2737,-0.2804,-0.2874,-0.2928,-0.2965,-0.305,-0.3061,-0.3095,-0.3114,-0.3096,-0.3151,-0.3123,-0.3097,-0.3043,-0.3116,-0.3098,-0.3102,-0.303,-0.3028,-0.3026,-0.3024,0,0,-0.2381,-0.244,-0.248,-0.2536,-0.2584,-0.2632,-0.2693,-0.274,-0.2815,-0.2852,-0.2857,-0.2931,-0.2935,-0.299,-0.3021,-0.3022,-0.3008,-0.3011,-0.3083,-0.309,-0.3096,-0.3084,-0.3089,-0.3021,-0.302,-0.302,-0.3019,0,-0.2368,-0.2415,-0.2458,-0.2505,-0.2577,-0.2603,-0.2634,-0.2693,-0.2735,-0.281,-0.2804,-0.2848,-0.2892,-0.29,-0.2905,-0.2993,-0.2947,-0.3005,-0.3065,-0.3068,-0.3077,-0.3085,-0.3076,-0.3082,-0.3015,-0.3015,-0.3015,0,-0.2339,-0.2374,-0.2399,-0.2464,-0.2502,-0.2555,-0.2551,-0.2616,-0.2669,-0.2644,-0.2733,-0.2742,-0.2739,-0.2798,-0.2826,-0.2799,-0.2884,-0.2867,-0.2876,-0.2863,-0.2861,-0.2873,-0.2883,-0.2746,-0.2746,-0.2745,0,0,-0.2329,-0.2372,-0.2416,-0.2461,-0.2489,-0.2528,-0.256,-0.2588,-0.2624,-0.2649,-0.2673,-0.2694,-0.2716,-0.274,-0.2754,-0.2805,-0.2772,-0.2838,-0.285,-0.2861,-0.2854,-0.2855,-0.2866,-0.2743,-0.2743,-0.2743,0,0,-0.2316,-0.2366,-0.2385,-0.2435,-0.2482,-0.2509,-0.2551,-0.2572,-0.2621,-0.2637,-0.263,-0.2636,-0.2702,-0.2687,-0.266,-0.2746,-0.2689,-0.2695,-0.2768,-0.2783,-0.2795,-0.2784,-0.2616,0,0,0,0,0,-0.2321,-0.2356,-0.2373,-0.2386,-0.2449,-0.2498,-0.2508,-0.2545,-0.2558,-0.2595,-0.262,-0.2599,-0.2673,-0.2649,-0.2651,-0.2702,-0.2714,-0.2719,-0.2724,-0.2829,-0.2846,-0.286,0,0,0,0,0,0,-0.2326,-0.234,-0.2372,-0.2398,-0.2413,-0.2496,-0.2486,-0.2496,-0.2556,-0.2562,-0.2594,-0.2597,-0.2585,-0.2645,-0.2648,-0.2698,-0.2615,-0.2716,-0.2721,-0.2725,-0.2835,-0.2849,-0.286,0,0,0,0,0,-0.2331,-0.2342,-0.2437,-0.2398,-0.2411,-0.2466,-0.2486,-0.2495,-0.255,-0.2549,-0.2556,-0.2584,-0.2584,-0.2589,-0.2647,-0.2697,-0.2613,-0.2614,-0.2719,-0.2723,-0.2726,-0.2842,0,0,0,0,0,0,-0.2334,-0.2343,-0.244,-0.2445,-0.2403,-0.2464,-0.2475,-0.2493,-0.2534,-0.2542,-0.2533,-0.2536,-0.2583,-0.2587,-0.259,-0.27,-0.2611,-0.2613,-0.2613,-0.2722,-0.2724,-0.2727,0,0,0,0,0,0,-0.2337,-0.2347,-0.2442,-0.2447,-0.2453,-0.2462,-0.2472,-0.2482,-0.2533,-0.2515,-0.252,-0.2534,-0.2576,-0.2586,-0.2588,-0.2602,-0.261,-0.2611,-0.2612,-0.2613,-0.2724,-0.2726,0,0,0,0,0,0,-0.2342,-0.235,-0.2446,-0.2451,-0.2456,-0.2516,-0.247,-0.2531,-0.2549,-0.2512,-0.2552,-0.2553,-0.2573,-0.2577,-0.2587,-0.2599,-0.2601,-0.261,-0.2611,-0.2611,-0.2612,0,0,0,0,0,0,0,-0.2346,-0.2284,-0.2412,-0.2453,-0.2458,-0.2496,-0.2497,-0.2498,-0.255,-0.2551,-0.2551,-0.2552,-0.2604,-0.2605,-0.2606,-0.2597,0,0,-0.261,-0.2611,0,0,0,0,0,0,0,0,-0.2281,-0.2283,-0.2413,-0.2414,-0.2415,-0.2496,-0.2497,-0.2498,-0.255,-0.2551,-0.2551,-0.2552,-0.2604,-0.2605,-0.2606,0,0,0,0,0,0,0,0,0,0,0,0,0,0,0,-0.2413,-0.2414,0,-0.2496,-0.2497,-0.2498,-0.255,-0.2551,-0.2551,-0.2552,-0.2604,-0.2605,-0.2606,0,0,0,0,0,0,0,0,0,0,0,0,0,0,0,0,0,0,0,0,0,0,0,0,0,0,0,0,0,0,0,0,0,0,0,0,0,0,0,0,0,0,0,0,0,0,0,0,0,0,0,0,0,0,0,0,0,0,0,0,0,0,0,0,0,0,0,0,0]}],[{"header":{"parameterUnit":"kt","parameterCategory":2,"dx":1,"dy":1,"la1":30.253999710083008,"la2":30.299108505249023,"lo1":-89.0895004272461,"lo2":-89.04439544677734,"nx":28,"ny":28,"refTime":"2022-10-23T21:00:00:Z","depth":"4","parameterNumber":3,"parameterNumberName":"V-component_of_CURRENTS"},"data":[-0.1146,-0.126,-0.1315,-0.1454,-0.1536,-0.1623,-0.1626,-0.1546,-0.1441,-0.1292,-0.1067,-0.0894,-0.0494,-0.0629,-0.0088,-0.0011,0.0085,0.0512,0.0516,0.0674,0.0675,0.0676,0.0567,0,0,0,0,0,-0.1116,-0.1198,-0.1306,-0.1409,-0.1506,-0.1554,-0.1552,-0.1514,-0.1395,-0.127,-0.1161,-0.0896,-0.0488,-0.0294,-0.0072,0.0036,0.0365,0.0297,0.0421,0.0675,0.0676,0.0569,0,0,0,0,0,0,-0.1081,-0.1144,-0.1233,-0.1329,-0.1428,-0.148,-0.1475,-0.1412,-0.1357,-0.1137,-0.1075,-0.0746,-0.0536,-0.0178,0.0071,0.0304,0.035,0.0398,0.0414,0.0418,0.0293,0.0166,0.0216,0,0,0,0,0,-0.1038,-0.1072,-0.1126,-0.1249,-0.1314,-0.1365,-0.1382,-0.1367,-0.1249,-0.1163,-0.0956,-0.0718,-0.0442,-0.0115,0.0153,0.0395,0.0583,0.0648,0.065,0.0618,0.0551,0.0576,0.0565,0.0681,0.0681,0.0681,0.0681,0,-0.098,-0.102,-0.1095,-0.1152,-0.1171,-0.1214,-0.1239,-0.1163,-0.1135,-0.0958,-0.0919,-0.0676,-0.0495,-0.0092,0.0177,0.0517,0.0555,0.065,0.0615,0.0551,0.058,0.0567,0.0555,0.0682,0.0682,0.0682,0.0682,0,-0.0946,-0.0964,-0.1022,-0.1041,-0.1056,-0.1089,-0.108,-0.1072,-0.0968,-0.0896,-0.0856,-0.0616,-0.0372,-0.0104,0.0203,0.0323,0.054,0.0601,0.0518,0.0553,0.0564,0.0551,0.0684,0.0683,0.0683,0.0683,0.0683,0,-0.0885,-0.0923,-0.0946,-0.0971,-0.1017,-0.0966,-0.0973,-0.0914,-0.082,-0.077,-0.0597,-0.0508,-0.0235,-0.0048,0.0131,0.0346,0.0393,0.0473,0.0515,0.047,0.0459,0.0511,0.0502,0.0569,0.0568,0.0567,0.0566,0,-0.0827,-0.0851,-0.0899,-0.0899,-0.0878,-0.0878,-0.0859,-0.076,-0.0726,-0.0588,-0.0539,-0.0347,-0.0249,-0.0072,0.014,0.0129,0.039,0.0412,0.0478,0.0476,0.0501,0.0495,0.0565,0.0565,0.0564,0.0564,0.0564,0,-0.0755,-0.0779,-0.0827,-0.0819,-0.0817,-0.0818,-0.0762,-0.0728,-0.0598,-0.0536,-0.0418,-0.0311,-0.0163,-0.0124,0.0116,0.0059,0.0173,0.0275,0.0284,0.0269,0.0299,0.0351,0.0388,0.0385,0.0384,0.0382,0.038,0,-0.0703,-0.0747,-0.0716,-0.0743,-0.0757,-0.0689,-0.0661,-0.0597,-0.0526,-0.0452,-0.0316,-0.0234,-0.017,-0.0122,-0.0029,0.0111,0.0185,0.0106,0.0314,0.032,0.0272,0.03,0.0205,0.0354,0.0357,0.036,0.0361,0,-0.0654,-0.0649,-0.0654,-0.0663,-0.062,-0.0612,-0.0577,-0.052,-0.049,-0.0404,-0.0346,-0.0217,-0.0154,-0.0095,-0.0009,0.007,0.015,0.0104,0.011,0.0154,0.0322,0.0274,0.0285,0.0193,0.0196,0.0198,0.0343,0,-0.0596,-0.0606,-0.0613,-0.06,-0.058,-0.058,-0.0519,-0.0488,-0.0443,-0.0386,-0.0291,-0.0183,-0.0087,-0.005,-0.0001,0.0083,0.0096,0.0129,0.0154,0.0161,0.0223,0.0237,0.0086,0.0088,0.0088,0.0089,0,0,-0.0551,-0.0563,-0.0525,-0.053,-0.0519,-0.0458,-0.0466,-0.0422,-0.0351,-0.0315,-0.03,-0.014,-0.0068,0.0034,0.0036,0.0073,0.0117,0.007,0.0148,0.0154,0.016,0.0219,0.0231,0.0091,0.0091,0.0091,0.0091,0,-0.0525,-0.051,-0.0526,-0.0504,-0.0473,-0.0437,-0.0437,-0.0382,-0.0349,-0.03,-0.0228,-0.0153,-0.0065,0.0013,0.0062,0.0079,0.0138,0.009,0.0064,0.0152,0.0157,0.0162,0.022,0.0231,0.0094,0.0093,0.0093,0,-0.0484,-0.0467,-0.047,-0.0442,-0.0414,-0.0403,-0.0356,-0.0339,-0.0321,-0.0233,-0.0189,-0.0121,-0.0032,0.0027,0.0058,0.0069,0.0162,0.0125,0.0121,0.0116,0.021,0.0214,0.0219,0.0165,0.0164,0.0164,0,0,-0.0464,-0.0468,-0.0425,-0.0432,-0.042,-0.0368,-0.0351,-0.0322,-0.0268,-0.0245,-0.0181,-0.0111,-0.0042,-0.0003,0.0057,0.0111,0.0161,0.013,0.0127,0.0124,0.0117,0.0208,0.0213,0.0164,0.0164,0.0164,0,0,-0.0448,-0.0415,-0.0401,-0.0407,-0.0375,-0.0317,-0.0313,-0.0282,-0.0227,-0.0221,-0.014,-0.0118,-0.006,-0.0013,-0.0025,0.0066,0.0083,0.0087,0.0033,0.003,0.0026,0.0002,0.0024,0,0,0,0,0,-0.0406,-0.0422,-0.041,-0.0405,-0.0359,-0.0326,-0.0317,-0.0274,-0.0257,-0.0254,-0.0186,-0.0149,-0.0003,-0.0012,0.0007,0.002,0.0161,0.0161,0.0162,0.0105,0.01,0.0097,0,0,0,0,0,0,-0.0404,-0.0399,-0.0409,-0.0356,-0.0345,-0.0326,-0.0289,-0.0277,-0.0256,-0.0251,-0.0162,-0.0146,-0.009,-0.0018,-0.0001,0.0009,0.0019,0.0161,0.0161,0.0162,0.0103,0.01,0.0097,0,0,0,0,0,-0.0402,-0.0398,-0.0343,-0.0354,-0.0344,-0.029,-0.0289,-0.0279,-0.0259,-0.0175,-0.0159,-0.023,-0.0092,-0.0073,-0.0008,0.0,0.0008,0.0014,0.0161,0.0162,0.0162,0.0101,0,0,0,0,0,0,-0.04,-0.0377,-0.0339,-0.0333,-0.0355,-0.029,-0.0281,-0.028,-0.0182,-0.0168,-0.0238,-0.0235,-0.0093,-0.0078,-0.0064,-0.0006,-0.0001,0.0005,0.0009,0.0162,0.0162,0.0162,0,0,0,0,0,0,-0.0378,-0.0373,-0.0336,-0.0339,-0.0333,-0.029,-0.0282,-0.0221,-0.018,-0.0249,-0.0245,-0.0238,-0.0104,-0.0082,-0.007,0.0023,-0.0008,-0.0002,0.0002,0.0004,0.0162,0.0162,0,0,0,0,0,0,-0.0374,-0.0369,-0.034,-0.0336,-0.033,-0.0259,-0.0232,-0.0179,-0.0211,-0.0253,-0.021,-0.021,-0.0107,-0.0095,-0.0075,0.0013,0.002,-0.0008,-0.0004,-0.0001,0.0001,0,0,0,0,0,0,0,-0.0371,-0.0425,-0.0377,-0.0333,-0.0328,-0.028,-0.0278,-0.0276,-0.0211,-0.0211,-0.021,-0.021,-0.0041,-0.0035,-0.0029,0.0005,0,0,-0.0009,-0.0006,0,0,0,0,0,0,0,0,-0.0425,-0.0425,-0.0377,-0.0376,-0.0375,-0.028,-0.0278,-0.0276,-0.0211,-0.0211,-0.021,-0.021,-0.004,-0.0035,-0.0029,0,0,0,0,0,0,0,0,0,0,0,0,0,0,0,-0.0377,-0.0376,0,-0.0279,-0.0278,-0.0277,-0.0211,-0.0211,-0.021,-0.021,-0.0038,-0.0034,-0.003,0,0,0,0,0,0,0,0,0,0,0,0,0,0,0,0,0,0,0,0,0,0,0,0,0,0,0,0,0,0,0,0,0,0,0,0,0,0,0,0,0,0,0,0,0,0,0,0,0,0,0,0,0,0,0,0,0,0,0,0,0,0,0,0,0,0,0,0,0]}]]]